Main page
METAR-TAF:

METAR-TAF

Airports :

Clayton Municipal Airpark

Clayton, New Mexico, United States

latitude: 36-26-54N, longitude: 103-09-11W, elevation: 4963 ft

Current weather observation

The report was made 51 minutes ago, at 08:55 UTC
Wind 12 mph from the Northwest
Temperature 36°F
Humidity 64%
Pressure 30.21 in. Hg
Visibility: 10 miles
Clear sky

METAR: KCAO 190855Z AUTO 31010KT 10SM CLR 02/M04 A3021 RMK AO2 SLP207 T00221044 58009

Time: 03:46 (09:46 UTC)


TAF: missing

Weather observations and forecasts of more than 4000 airports (METAR and TAF reports).

The available stations are represented by yellow and red dots on the map.

Hover mouse over dot to see the name of the station.

Then click to see weather observations and forecasts.

To change the map : click on the green buttons with a black cross to zoom in, on the green button with a dash to zoom out, or on the green arrows for adjacent maps.


METAR-TAF: